Regional Weather Roundup
Issued by NWS Kansas City/Pleasant Hill, MO

Home | Current Version | Previous Version | Graphics & Text | Print | Product List | Glossary Off
Versions: 1 2 3 4 5 6 7 8 9 10 11 12 13 14 15 16 17 18 19 20 21 22 23 24 25 26 27 28 29 30 31 32 33 34 35 36 37 38 39 40 41 42 43 44 45 46 47 48 49 50

927
ASUS43 KEAX 281210
RWREAX

WEATHER ROUNDUP FOR EASTERN KANSAS AND NORTHWEST MISSOURI
NATIONAL WEATHER SERVICE KANSAS CITY/PLEASANT HILL MO
700 AM CDT SUN AUG 28 2016

KSZ040-057-103>105-MOZ028-029-037-043-281300-
...KANSAS CITY METROPOLITAN AREA...

CITY           SKY/WX    TMP DP  RH WIND       PRES   REMARKS
K.C. INTL      CLEAR     70  67  90 S7        30.10R
6HR MIN TEMP:  70; 6HR MAX TEMP:  75;

K.C. DOWNTOWN  CLEAR     73  70  90 CALM      30.09R
6HR MIN TEMP:  72; 6HR MAX TEMP:  75;

LEES SUMMIT    CLEAR     73  70  90 S3        30.11R
6HR MIN TEMP:  73; 6HR MAX TEMP:  77;

OLATHE - IXD   CLEAR     71  70  96 S5        30.11R
6HR MIN TEMP:  71; 6HR MAX TEMP:  76;

OLATHE - OJC   CLEAR     69  68  96 S5        30.11R
6HR MIN TEMP:  69; 6HR MAX TEMP:  74;

LAWRENCE       CLEAR     68  68 100 E3        30.09R FOG

$$

MOZ001>008-011>017-020>025-030>033-038>040-044>046-053-054-281300-
...NORTHERN AND CENTRAL MISSOURI...

CITY           SKY/WX    TMP DP  RH WIND       PRES   REMARKS
ST. JOSEPH     CLEAR     69  67  93 SE3       30.09R
6HR MIN TEMP:  67; 6HR MAX TEMP:  73;

MOSBY          SUNNY     68  68 100 CALM      30.10R
WHITEMAN AFB   CLEAR     70  70 100 S5        30.11R
6HR MIN TEMP:  70; 6HR MAX TEMP:  74;

CLINTON        CLEAR     68  68 100 CALM      30.12R FOG
SEDALIA        CLEAR     71  69  93 S6        30.13R
6HR MIN TEMP:  70; 6HR MAX TEMP:  74;

WARSAW         NOT AVBL
CHILLICOTHE    NOT AVBL
KIRKSVILLE     FOG       68  67  96 CALM      30.14R VSB 1/4
6HR MIN TEMP:  67; 6HR MAX TEMP:  73;


$$

MOZ041-047>049-056>058-063>065-088>090-097-281300-
...EASTERN AND SOUTHERN MISSOURI...

CITY           SKY/WX    TMP DP  RH WIND       PRES   REMARKS
ST. LOUIS INTL MOCLDY    76  71  85 CALM      30.14R
6HR MIN TEMP:  74; 6HR MAX TEMP:  80;

SPIRIT OF STL  FOG       70  70 100 CALM      30.13R VSB 3/4
COLUMBIA       CLEAR     71  70  96 SE5       30.14R
JEFFERSON CITY CLEAR     72  71  97 CALM      30.12R
ROLLA          CLEAR     70  68  93 CALM      30.14R
OSAGE BEACH    CLEAR     71  70  96 CALM      30.14R
SPRINGFIELD    CLEAR     71  68  90 CALM      30.13R
BRANSON        PTCLDY    68  68 100 CALM      30.16R FOG
JOPLIN         CLEAR     72  70  93 S3        30.12R
WEST PLAINS    CLEAR     68  64  87 CALM      30.17R

$$

IAZ060-094-KSZ022-034>040-054-083-096-NEZ052-066-093-281300-
...KANSAS...SOUTHEAST NEBRASKA AND IOWA...

CITY           SKY/WX    TMP DP  RH WIND       PRES   REMARKS
TOPEKA         CLEAR     69  67  93 CALM      30.09R
6HR MIN TEMP:  68; 6HR MAX TEMP:  73;

MANHATTAN      CLEAR     69  68  96 CALM      30.08R
EMPORIA        PTCLDY    69  68  96 SE6       30.10R
CHANUTE        CLOUDY    72  70  93 SE6       30.10R
WICHITA        CLOUDY    73  70  90 S8        30.08R
OMAHA          MOCLDY    69  65  86 SE5       30.09R
LINCOLN        PTCLDY    64  62  93 CALM      30.08R
FALLS CITY     CLEAR     68  68 100 CALM      30.07S FOG
LAMONI         CLEAR     69  68  96 SE6       30.12R
DES MOINES     PTCLDY    69  67  93 E6        30.11R FOG

$$





USA.gov is the U.S. government's official web portal to all federal, state and local government web resources and services.